Time,TemperatureF,DewpointF,PressureIn,WindDirection,WindDirectionDegrees,WindSpeedMPH,WindSpeedGustMPH,Humidity,HourlyPrecipIn,Conditions,Clouds,dailyrainin,SoftwareType,DateUTC
2013-01-28 00:05:00,17.2,-0.1,30.38,North,-999,0.0,0.0,46,0.00,,,-99.99,WeatherLink 5.7,2013-01-28 05:05:00,
2013-01-28 00:15:00,17.2,0.8,30.37,North,-999,0.0,0.0,48,0.00,,,-99.99,WeatherLink 5.7,2013-01-28 05:15:00,
2013-01-28 00:20:00,17.2,0.4,30.37,North,-999,0.0,0.0,47,0.00,,,-99.99,WeatherLink 5.7,2013-01-28 05:20:00,
2013-01-28 00:25:00,17.2,1.3,30.37,West,270,0.0,1.0,49,0.00,,,-99.99,WeatherLink 5.7,2013-01-28 05:25:00,
2013-01-28 00:35:00,17.3,4.3,30.37,North,-999,0.0,0.0,56,0.00,,,-99.99,WeatherLink 5.7,2013-01-28 05:35:00,
2013-01-28 00:45:00,17.5,2.0,30.36,North,-999,0.0,0.0,50,0.00,,,-99.99,WeatherLink 5.7,2013-01-28 05:45:00,
2013-01-28 00:50:00,17.7,2.6,30.36,North,-999,0.0,0.0,51,0.00,,,-99.99,WeatherLink 5.7,2013-01-28 05:50:00,
2013-01-28 01:00:00,17.7,0.9,30.36,North,-999,0.0,0.0,47,0.00,,,-99.99,WeatherLink 5.7,2013-01-28 06:00:00,
2013-01-28 01:05:00,17.7,-0.1,30.36,North,-999,0.0,0.0,45,0.00,,,-99.99,WeatherLink 5.7,2013-01-28 06:05:00,
2013-01-28 01:15:00,17.7,1.3,30.36,North,-999,0.0,0.0,48,0.00,,,-99.99,WeatherLink 5.7,2013-01-28 06:15:00,
2013-01-28 01:25:00,17.5,1.6,30.36,North,-999,0.0,0.0,49,0.00,,,-99.99,WeatherLink 5.7,2013-01-28 06:25:00,
2013-01-28 01:35:00,17.5,0.7,30.36,North,-999,0.0,0.0,47,0.00,,,-99.99,WeatherLink 5.7,2013-01-28 06:35:00,
2013-01-28 01:45:00,17.3,1.8,30.38,North,-999,0.0,0.0,50,0.00,,,-99.99,WeatherLink 5.7,2013-01-28 06:45:00,
2013-01-28 01:50:00,17.2,1.3,30.38,North,-999,0.0,0.0,49,0.00,,,-99.99,WeatherLink 5.7,2013-01-28 06:50:00,
2013-01-28 02:00:00,17.2,1.7,30.37,North,-999,0.0,0.0,50,0.00,,,-99.99,WeatherLink 5.7,2013-01-28 07:00:00,
2013-01-28 02:10:00,17.2,3.8,30.37,North,-999,0.0,0.0,55,0.00,,,-99.99,WeatherLink 5.7,2013-01-28 07:10:00,
2013-01-28 02:15:00,17.3,3.9,30.37,North,-999,0.0,0.0,55,0.00,,,-99.99,WeatherLink 5.7,2013-01-28 07:15:00,
2013-01-28 02:20:00,17.3,3.1,30.37,North,-999,0.0,0.0,53,0.00,,,-99.99,WeatherLink 5.7,2013-01-28 07:20:00,
2013-01-28 02:30:00,17.7,3.0,30.37,North,-999,0.0,0.0,52,0.00,,,-99.99,WeatherLink 5.7,2013-01-28 07:30:00,
2013-01-28 02:35:00,17.7,3.0,30.37,North,-999,0.0,0.0,52,0.00,,,-99.99,WeatherLink 5.7,2013-01-28 07:35:00,
2013-01-28 02:45:00,17.8,1.4,30.36,North,-999,0.0,0.0,48,0.00,,,-99.99,WeatherLink 5.7,2013-01-28 07:45:00,
2013-01-28 02:55:00,18.0,0.7,30.36,North,-999,0.0,0.0,46,0.00,,,-99.99,WeatherLink 5.7,2013-01-28 07:55:00,
2013-01-28 03:05:00,18.1,1.7,30.35,North,-999,0.0,0.0,48,0.00,,,-99.99,WeatherLink 5.7,2013-01-28 08:05:00,
2013-01-28 03:10:00,18.1,3.0,30.35,North,-999,0.0,0.0,51,0.00,,,-99.99,WeatherLink 5.7,2013-01-28 08:10:00,
2013-01-28 03:15:00,18.3,3.2,30.36,North,-999,0.0,0.0,51,0.00,,,-99.99,WeatherLink 5.7,2013-01-28 08:15:00,
2013-01-28 03:25:00,18.4,3.3,30.36,North,-999,0.0,0.0,51,0.00,,,-99.99,WeatherLink 5.7,2013-01-28 08:25:00,
2013-01-28 03:30:00,18.6,3.9,30.36,North,-999,0.0,0.0,52,0.00,,,-99.99,WeatherLink 5.7,2013-01-28 08:30:00,
2013-01-28 03:35:00,18.6,4.3,30.36,North,-999,0.0,0.0,53,0.00,,,-99.99,WeatherLink 5.7,2013-01-28 08:35:00,
2013-01-28 03:45:00,18.9,4.1,30.35,North,-999,0.0,0.0,52,0.00,,,-99.99,WeatherLink 5.7,2013-01-28 08:45:00,
2013-01-28 03:50:00,18.9,5.4,30.35,North,-999,0.0,0.0,55,0.00,,,-99.99,WeatherLink 5.7,2013-01-28 08:50:00,
2013-01-28 04:00:00,19.1,5.2,30.35,North,-999,0.0,0.0,54,0.00,,,-99.99,WeatherLink 5.7,2013-01-28 09:00:00,
2013-01-28 04:05:00,19.2,5.7,30.35,North,-999,0.0,0.0,55,0.00,,,-99.99,WeatherLink 5.7,2013-01-28 09:05:00,
2013-01-28 04:10:00,19.2,4.8,30.35,North,-999,0.0,0.0,53,0.00,,,-99.99,WeatherLink 5.7,2013-01-28 09:10:00,
2013-01-28 04:20:00,19.4,5.8,30.34,North,-999,0.0,0.0,55,0.00,,,-99.99,WeatherLink 5.7,2013-01-28 09:20:00,
2013-01-28 04:25:00,19.4,5.0,30.34,North,-999,0.0,0.0,53,0.00,,,-99.99,WeatherLink 5.7,2013-01-28 09:25:00,
2013-01-28 04:35:00,19.4,4.2,30.34,North,-999,0.0,0.0,51,0.00,,,-99.99,WeatherLink 5.7,2013-01-28 09:35:00,
2013-01-28 04:45:00,19.7,4.5,30.34,North,-999,0.0,0.0,51,0.00,,,-99.99,WeatherLink 5.7,2013-01-28 09:45:00,
2013-01-28 04:55:00,19.7,4.9,30.34,North,-999,0.0,0.0,52,0.00,,,-99.99,WeatherLink 5.7,2013-01-28 09:55:00,
2013-01-28 05:00:00,19.7,4.9,30.33,North,-999,0.0,0.0,52,0.00,,,-99.99,WeatherLink 5.7,2013-01-28 10:00:00,
2013-01-28 05:05:00,19.9,4.7,30.33,North,-999,0.0,0.0,51,0.00,,,-99.99,WeatherLink 5.7,2013-01-28 10:05:00,
2013-01-28 05:10:00,19.9,5.1,30.33,North,-999,0.0,0.0,52,0.00,,,-99.99,WeatherLink 5.7,2013-01-28 10:10:00,
2013-01-28 05:20:00,19.9,5.5,30.34,North,-999,0.0,0.0,53,0.00,,,-99.99,WeatherLink 5.7,2013-01-28 10:20:00,
2013-01-28 05:30:00,19.9,6.3,30.33,North,-999,0.0,0.0,55,0.00,,,-99.99,WeatherLink 5.7,2013-01-28 10:30:00,
2013-01-28 05:35:00,19.7,5.7,30.33,North,-999,0.0,0.0,54,0.00,,,-99.99,WeatherLink 5.7,2013-01-28 10:35:00,
2013-01-28 05:45:00,19.5,4.7,30.34,North,-999,0.0,0.0,52,0.00,,,-99.99,WeatherLink 5.7,2013-01-28 10:45:00,
2013-01-28 05:50:00,19.4,4.6,30.34,North,-999,0.0,0.0,52,0.00,,,-99.99,WeatherLink 5.7,2013-01-28 10:50:00,
2013-01-28 06:00:00,19.1,4.3,30.34,North,-999,0.0,0.0,52,0.00,,,-99.99,WeatherLink 5.7,2013-01-28 11:00:00,
2013-01-28 06:05:00,19.1,5.2,30.34,North,-999,0.0,0.0,54,0.00,,,-99.99,WeatherLink 5.7,2013-01-28 11:05:00,
2013-01-28 06:15:00,18.9,4.1,30.34,North,-999,0.0,0.0,52,0.00,,,-99.99,WeatherLink 5.7,2013-01-28 11:15:00,
2013-01-28 06:20:00,18.9,5.0,30.34,North,-999,0.0,0.0,54,0.00,,,-99.99,WeatherLink 5.7,2013-01-28 11:20:00,
2013-01-28 06:30:00,18.8,5.3,30.34,North,-999,0.0,0.0,55,0.00,,,-99.99,WeatherLink 5.7,2013-01-28 11:30:00,
2013-01-28 06:35:00,18.6,5.1,30.34,North,-999,0.0,0.0,55,0.00,,,-99.99,WeatherLink 5.7,2013-01-28 11:35:00,
2013-01-28 06:40:00,18.6,5.5,30.34,North,-999,0.0,0.0,56,0.00,,,-99.99,WeatherLink 5.7,2013-01-28 11:40:00,
2013-01-28 06:50:00,18.6,5.5,30.34,North,-999,0.0,0.0,56,0.00,,,-99.99,WeatherLink 5.7,2013-01-28 11:50:00,
2013-01-28 06:55:00,18.6,5.5,30.34,North,-999,0.0,0.0,56,0.00,,,-99.99,WeatherLink 5.7,2013-01-28 11:55:00,
2013-01-28 07:00:00,18.6,5.5,30.33,North,-999,0.0,0.0,56,0.00,,,-99.99,WeatherLink 5.7,2013-01-28 12:00:00,
2013-01-28 07:10:00,18.6,6.6,30.33,North,-999,0.0,0.0,59,0.00,,,-99.99,WeatherLink 5.7,2013-01-28 12:10:00,
2013-01-28 07:20:00,18.8,7.2,30.34,North,-999,0.0,0.0,60,0.00,,,-99.99,WeatherLink 5.7,2013-01-28 12:20:00,
2013-01-28 07:30:00,18.6,7.0,30.33,North,-999,0.0,0.0,60,0.00,,,-99.99,WeatherLink 5.7,2013-01-28 12:30:00,
2013-01-28 07:40:00,18.4,6.8,30.33,North,-999,0.0,0.0,60,0.00,,,-99.99,WeatherLink 5.7,2013-01-28 12:40:00,
2013-01-28 07:45:00,18.4,6.4,30.34,North,-999,0.0,0.0,59,0.00,,,-99.99,WeatherLink 5.7,2013-01-28 12:45:00,
2013-01-28 07:55:00,18.6,6.6,30.34,North,-999,0.0,0.0,59,0.00,,,-99.99,WeatherLink 5.7,2013-01-28 12:55:00,
2013-01-28 08:05:00,19.1,7.5,30.34,North,-999,0.0,0.0,60,0.00,,,-99.99,WeatherLink 5.7,2013-01-28 13:05:00,
2013-01-28 08:10:00,19.4,7.0,30.34,North,-999,0.0,0.0,58,0.00,,,-99.99,WeatherLink 5.7,2013-01-28 13:10:00,
2013-01-28 08:20:00,20.0,6.4,30.34,North,-999,0.0,0.0,55,0.00,,,-99.99,WeatherLink 5.7,2013-01-28 13:20:00,
2013-01-28 08:25:00,20.3,7.1,30.34,North,-999,0.0,0.0,56,0.00,,,-99.99,WeatherLink 5.7,2013-01-28 13:25:00,
2013-01-28 08:35:00,21.1,7.0,30.33,North,-999,0.0,0.0,54,0.00,,,-99.99,WeatherLink 5.7,2013-01-28 13:35:00,
2013-01-28 08:45:00,22.2,7.6,30.34,West,270,0.0,1.0,53,0.00,,,-99.99,WeatherLink 5.7,2013-01-28 13:45:00,
2013-01-28 08:55:00,22.7,5.9,30.34,North,-999,0.0,0.0,48,0.00,,,-99.99,WeatherLink 5.7,2013-01-28 13:55:00,
2013-01-28 09:00:00,22.5,5.7,30.33,North,-999,0.0,0.0,48,0.00,,,-99.99,WeatherLink 5.7,2013-01-28 14:00:00,
2013-01-28 09:10:00,22.9,5.2,30.33,West,270,0.0,1.0,46,0.00,,,-99.99,WeatherLink 5.7,2013-01-28 14:10:00,
2013-01-28 09:20:00,23.5,5.7,30.33,North,-999,0.0,0.0,46,0.00,,,-99.99,WeatherLink 5.7,2013-01-28 14:20:00,
2013-01-28 09:25:00,24.1,6.3,30.33,West,270,0.0,2.0,46,0.00,,,-99.99,WeatherLink 5.7,2013-01-28 14:25:00,
2013-01-28 09:30:00,24.8,5.4,30.33,West,270,0.0,1.0,43,0.00,,,-99.99,WeatherLink 5.7,2013-01-28 14:30:00,
2013-01-28 09:40:00,25.6,5.6,30.33,West,270,0.0,2.0,42,0.00,,,-99.99,WeatherLink 5.7,2013-01-28 14:40:00,
2013-01-28 09:45:00,25.8,5.3,30.33,North,-999,0.0,0.0,41,0.00,,,-99.99,WeatherLink 5.7,2013-01-28 14:45:00,
2013-01-28 09:55:00,26.1,4.5,30.33,West,270,0.0,1.0,39,0.00,,,-99.99,WeatherLink 5.7,2013-01-28 14:55:00,
2013-01-28 10:05:00,26.3,5.8,30.32,West,270,0.0,2.0,41,0.00,,,-99.99,WeatherLink 5.7,2013-01-28 15:05:00,
2013-01-28 10:10:00,25.8,3.6,30.32,SW,225,0.0,3.0,38,0.00,,,-99.99,WeatherLink 5.7,2013-01-28 15:10:00,
2013-01-28 10:20:00,25.3,4.3,30.32,SSW,202,0.0,2.0,40,0.00,,,-99.99,WeatherLink 5.7,2013-01-28 15:20:00,
2013-01-28 10:25:00,25.1,4.1,30.32,SSW,202,0.0,1.0,40,0.00,,,-99.99,WeatherLink 5.7,2013-01-28 15:25:00,
2013-01-28 10:30:00,25.1,4.1,30.31,South,180,0.0,2.0,40,0.00,,,-99.99,WeatherLink 5.7,2013-01-28 15:30:00,
2013-01-28 10:40:00,25.6,5.1,30.31,South,180,0.0,2.0,41,0.00,,,-99.99,WeatherLink 5.7,2013-01-28 15:40:00,
2013-01-28 10:45:00,25.7,4.1,30.30,ENE,67,1.0,3.0,39,0.00,,,-99.99,WeatherLink 5.7,2013-01-28 15:45:00,
2013-01-28 10:50:00,25.8,3.6,30.30,NE,45,0.0,2.0,38,0.00,,,-99.99,WeatherLink 5.7,2013-01-28 15:50:00,
2013-01-28 11:00:00,26.0,4.4,30.29,SW,225,0.0,2.0,39,0.00,,,-99.99,WeatherLink 5.7,2013-01-28 16:00:00,
2013-01-28 11:05:00,26.4,3.0,30.29,South,180,1.0,2.0,36,0.00,,,-99.99,WeatherLink 5.7,2013-01-28 16:05:00,
2013-01-28 11:10:00,26.7,3.3,30.29,South,180,0.0,1.0,36,0.00,,,-99.99,WeatherLink 5.7,2013-01-28 16:10:00,
2013-01-28 11:20:00,27.6,4.1,30.28,South,180,0.0,2.0,36,0.00,,,-99.99,WeatherLink 5.7,2013-01-28 16:20:00,
2013-01-28 11:25:00,27.3,3.2,30.28,ESE,112,0.0,2.0,35,0.00,,,-99.99,WeatherLink 5.7,2013-01-28 16:25:00,
2013-01-28 11:35:00,27.3,4.4,30.27,North,-999,0.0,0.0,37,0.00,,,-99.99,WeatherLink 5.7,2013-01-28 16:35:00,
2013-01-28 11:40:00,27.3,3.2,30.27,ESE,112,0.0,2.0,35,0.00,,,-99.99,WeatherLink 5.7,2013-01-28 16:40:00,
2013-01-28 11:45:00,27.2,3.1,30.26,North,-999,0.0,0.0,35,0.00,,,-99.99,WeatherLink 5.7,2013-01-28 16:45:00,
2013-01-28 11:55:00,27.9,3.7,30.26,SSW,202,0.0,2.0,35,0.00,,,-99.99,WeatherLink 5.7,2013-01-28 16:55:00,
2013-01-28 12:05:00,28.7,3.8,30.24,South,180,0.0,2.0,34,0.00,,,-99.99,WeatherLink 5.7,2013-01-28 17:05:00,
2013-01-28 12:15:00,28.8,3.9,30.24,North,-999,0.0,0.0,34,0.00,,,-99.99,WeatherLink 5.7,2013-01-28 17:15:00,
2013-01-28 12:25:00,29.1,4.2,30.24,North,-999,0.0,0.0,34,0.00,,,-99.99,WeatherLink 5.7,2013-01-28 17:25:00,
2013-01-28 12:30:00,29.3,5.0,30.23,SSW,202,0.0,1.0,35,0.00,,,-99.99,WeatherLink 5.7,2013-01-28 17:30:00,
2013-01-28 12:40:00,29.3,6.2,30.23,SSE,157,0.0,3.0,37,0.00,,,-99.99,WeatherLink 5.7,2013-01-28 17:40:00,
2013-01-28 12:50:00,29.5,4.5,30.21,South,180,0.0,2.0,34,0.00,,,-99.99,WeatherLink 5.7,2013-01-28 17:50:00,
2013-01-28 12:55:00,29.1,4.8,30.21,North,-999,0.0,0.0,35,0.00,,,-99.99,WeatherLink 5.7,2013-01-28 17:55:00,
2013-01-28 13:05:00,28.8,6.9,30.20,SSW,202,0.0,2.0,39,0.00,,,-99.99,WeatherLink 5.7,2013-01-28 18:05:00,
2013-01-28 13:10:00,29.0,6.5,30.20,North,-999,0.0,0.0,38,0.00,,,-99.99,WeatherLink 5.7,2013-01-28 18:10:00,
2013-01-28 13:20:00,29.3,6.8,30.19,South,180,0.0,3.0,38,0.00,,,-99.99,WeatherLink 5.7,2013-01-28 18:20:00,
2013-01-28 13:25:00,29.3,5.0,30.19,South,180,1.0,5.0,35,0.00,,,-99.99,WeatherLink 5.7,2013-01-28 18:25:00,
2013-01-28 13:35:00,29.4,5.1,30.17,South,180,1.0,4.0,35,0.00,,,-99.99,WeatherLink 5.7,2013-01-28 18:35:00,
2013-01-28 13:45:00,29.0,8.7,30.16,SSE,157,1.0,3.0,42,0.00,,,-99.99,WeatherLink 5.7,2013-01-28 18:45:00,
2013-01-28 13:50:00,28.7,9.5,30.16,SSW,202,3.0,7.0,44,0.00,,,-99.99,WeatherLink 5.7,2013-01-28 18:50:00,
2013-01-28 14:00:00,28.8,10.1,30.15,South,180,1.0,5.0,45,0.00,,,-99.99,WeatherLink 5.7,2013-01-28 19:00:00,
2013-01-28 14:10:00,28.5,12.2,30.15,SSW,202,2.0,6.0,50,0.00,,,-99.99,WeatherLink 5.7,2013-01-28 19:10:00,
2013-01-28 14:15:00,28.5,13.9,30.14,South,180,1.0,2.0,54,0.00,,,-99.99,WeatherLink 5.7,2013-01-28 19:15:00,
2013-01-28 14:20:00,28.5,14.8,30.14,SSW,202,0.0,2.0,56,0.00,,,-99.99,WeatherLink 5.7,2013-01-28 19:20:00,
2013-01-28 14:25:00,28.2,14.5,30.14,South,180,2.0,4.0,56,0.00,,,-99.99,WeatherLink 5.7,2013-01-28 19:25:00,
2013-01-28 14:30:00,27.9,16.2,30.13,South,180,1.0,6.0,61,0.00,,,-99.99,WeatherLink 5.7,2013-01-28 19:30:00,
2013-01-28 14:35:00,27.6,17.0,30.13,SSE,157,1.0,3.0,64,0.00,,,-99.99,WeatherLink 5.7,2013-01-28 19:35:00,
2013-01-28 14:40:00,27.5,18.3,30.13,SSW,202,2.0,6.0,68,0.00,,,-99.99,WeatherLink 5.7,2013-01-28 19:40:00,
2013-01-28 14:45:00,27.2,19.7,30.13,SSW,202,2.0,6.0,73,0.00,,,-99.99,WeatherLink 5.7,2013-01-28 19:45:00,
2013-01-28 14:50:00,26.9,20.3,30.13,South,180,2.0,5.0,76,0.00,,,-99.99,WeatherLink 5.7,2013-01-28 19:50:00,
2013-01-28 14:55:00,26.7,20.8,30.13,SSW,202,1.0,7.0,78,0.00,,,-99.99,WeatherLink 5.7,2013-01-28 19:55:00,
2013-01-28 15:00:00,26.1,20.5,30.11,SSE,157,1.0,3.0,79,0.00,,,-99.99,WeatherLink 5.7,2013-01-28 20:00:00,
2013-01-28 15:05:00,25.7,21.0,30.11,North,-999,0.0,0.0,82,0.00,,,-99.99,WeatherLink 5.7,2013-01-28 20:05:00,
2013-01-28 15:10:00,25.4,21.0,30.11,SSE,157,0.0,2.0,83,0.00,,,-99.99,WeatherLink 5.7,2013-01-28 20:10:00,
2013-01-28 15:15:00,25.3,21.4,30.12,SSE,157,0.0,2.0,85,0.00,,,-99.99,WeatherLink 5.7,2013-01-28 20:15:00,
2013-01-28 15:20:00,25.3,21.7,30.12,North,-999,0.0,0.0,86,0.00,,,-99.99,WeatherLink 5.7,2013-01-28 20:20:00,
2013-01-28 15:25:00,25.3,22.0,30.12,North,-999,0.0,0.0,87,0.00,,,-99.99,WeatherLink 5.7,2013-01-28 20:25:00,
2013-01-28 15:30:00,25.1,21.8,30.11,SSE,157,1.0,3.0,87,0.00,,,-99.99,WeatherLink 5.7,2013-01-28 20:30:00,
2013-01-28 15:35:00,24.8,21.5,30.11,SE,135,1.0,2.0,87,0.00,,,-99.99,WeatherLink 5.7,2013-01-28 20:35:00,
2013-01-28 15:40:00,24.7,21.7,30.11,ENE,67,1.0,3.0,88,0.00,,,-99.99,WeatherLink 5.7,2013-01-28 20:40:00,
2013-01-28 15:45:00,24.7,21.9,30.10,ENE,67,1.0,2.0,89,0.00,,,-99.99,WeatherLink 5.7,2013-01-28 20:45:00,
2013-01-28 15:50:00,24.7,21.9,30.10,ENE,67,0.0,3.0,89,0.00,,,-99.99,WeatherLink 5.7,2013-01-28 20:50:00,
2013-01-28 15:55:00,24.7,21.9,30.10,NE,45,0.0,2.0,89,0.00,,,-99.99,WeatherLink 5.7,2013-01-28 20:55:00,
2013-01-28 16:00:00,24.7,21.9,30.11,North,-999,0.0,0.0,89,0.00,,,-99.99,WeatherLink 5.7,2013-01-28 21:00:00,
2013-01-28 16:05:00,24.7,21.9,30.11,NE,45,1.0,3.0,89,0.00,,,-99.99,WeatherLink 5.7,2013-01-28 21:05:00,
2013-01-28 16:10:00,24.5,22.0,30.11,NE,45,1.0,2.0,90,0.00,,,-99.99,WeatherLink 5.7,2013-01-28 21:10:00,
2013-01-28 16:15:00,24.5,22.0,30.11,NE,45,1.0,3.0,90,0.00,,,-99.99,WeatherLink 5.7,2013-01-28 21:15:00,
2013-01-28 16:20:00,24.5,22.0,30.11,NE,45,1.0,3.0,90,0.00,,,-99.99,WeatherLink 5.7,2013-01-28 21:20:00,
2013-01-28 16:25:00,24.5,22.0,30.11,East,90,2.0,3.0,90,0.00,,,-99.99,WeatherLink 5.7,2013-01-28 21:25:00,
2013-01-28 16:30:00,24.5,22.0,30.09,ENE,67,2.0,5.0,90,0.00,,,-99.99,WeatherLink 5.7,2013-01-28 21:30:00,
2013-01-28 16:35:00,24.4,22.2,30.09,ENE,67,2.0,3.0,91,0.00,,,-99.99,WeatherLink 5.7,2013-01-28 21:35:00,
2013-01-28 16:40:00,24.4,22.2,30.09,East,90,1.0,3.0,91,0.00,,,-99.99,WeatherLink 5.7,2013-01-28 21:40:00,
2013-01-28 16:45:00,24.4,22.2,30.08,NE,45,2.0,3.0,91,0.00,,,-99.99,WeatherLink 5.7,2013-01-28 21:45:00,
2013-01-28 16:50:00,24.4,22.4,30.08,NE,45,2.0,5.0,92,0.00,,,-99.99,WeatherLink 5.7,2013-01-28 21:50:00,
2013-01-28 16:55:00,24.2,22.2,30.08,NE,45,2.0,3.0,92,0.00,,,-99.99,WeatherLink 5.7,2013-01-28 21:55:00,
2013-01-28 17:00:00,24.4,22.4,30.08,ENE,67,0.0,2.0,92,0.00,,,-99.99,WeatherLink 5.7,2013-01-28 22:00:00,
2013-01-28 17:05:00,24.4,22.4,30.08,ENE,67,0.0,2.0,92,0.00,,,-99.99,WeatherLink 5.7,2013-01-28 22:05:00,
2013-01-28 17:10:00,24.4,22.4,30.08,ENE,67,1.0,2.0,92,0.00,,,-99.99,WeatherLink 5.7,2013-01-28 22:10:00,
2013-01-28 17:15:00,24.4,22.4,30.07,ENE,67,1.0,2.0,92,0.00,,,-99.99,WeatherLink 5.7,2013-01-28 22:15:00,
2013-01-28 17:20:00,24.4,22.4,30.07,ENE,67,1.0,2.0,92,0.00,,,-99.99,WeatherLink 5.7,2013-01-28 22:20:00,
2013-01-28 17:25:00,24.2,22.2,30.07,ENE,67,0.0,2.0,92,0.00,,,-99.99,WeatherLink 5.7,2013-01-28 22:25:00,
2013-01-28 17:30:00,24.2,22.2,30.06,East,90,0.0,1.0,92,0.00,,,-99.99,WeatherLink 5.7,2013-01-28 22:30:00,
2013-01-28 17:35:00,24.2,22.2,30.06,East,90,0.0,1.0,92,0.00,,,-99.99,WeatherLink 5.7,2013-01-28 22:35:00,
2013-01-28 17:40:00,24.2,22.2,30.06,East,90,0.0,1.0,92,0.00,,,-99.99,WeatherLink 5.7,2013-01-28 22:40:00,
2013-01-28 17:45:00,24.4,22.4,30.05,East,90,0.0,1.0,92,0.00,,,-99.99,WeatherLink 5.7,2013-01-28 22:45:00,
2013-01-28 17:50:00,24.4,22.7,30.05,North,-999,0.0,0.0,93,0.00,,,-99.99,WeatherLink 5.7,2013-01-28 22:50:00,
2013-01-28 17:55:00,24.5,22.8,30.05,North,-999,0.0,0.0,93,0.00,,,-99.99,WeatherLink 5.7,2013-01-28 22:55:00,
2013-01-28 18:00:00,24.4,22.4,30.04,North,-999,0.0,0.0,92,0.00,,,-99.99,WeatherLink 5.7,2013-01-28 23:00:00,
2013-01-28 18:05:00,24.4,22.7,30.04,North,-999,0.0,0.0,93,0.00,,,-99.99,WeatherLink 5.7,2013-01-28 23:05:00,
2013-01-28 18:10:00,24.5,22.8,30.04,North,-999,0.0,0.0,93,0.00,,,-99.99,WeatherLink 5.7,2013-01-28 23:10:00,
2013-01-28 18:15:00,24.4,22.7,30.03,North,-999,0.0,0.0,93,0.00,,,-99.99,WeatherLink 5.7,2013-01-28 23:15:00,
2013-01-28 18:20:00,24.4,22.7,30.03,North,-999,0.0,0.0,93,0.00,,,-99.99,WeatherLink 5.7,2013-01-28 23:20:00,
2013-01-28 18:25:00,24.4,22.7,30.03,East,90,0.0,1.0,93,0.00,,,-99.99,WeatherLink 5.7,2013-01-28 23:25:00,
2013-01-28 18:30:00,24.4,22.7,30.03,East,90,0.0,1.0,93,0.00,,,-99.99,WeatherLink 5.7,2013-01-28 23:30:00,
2013-01-28 18:35:00,24.5,22.8,30.03,North,-999,0.0,0.0,93,0.00,,,-99.99,WeatherLink 5.7,2013-01-28 23:35:00,
2013-01-28 18:40:00,24.7,23.0,30.03,North,-999,0.0,0.0,93,0.00,,,-99.99,WeatherLink 5.7,2013-01-28 23:40:00,
2013-01-28 18:45:00,24.7,23.0,30.04,North,-999,0.0,0.0,93,0.00,,,-99.99,WeatherLink 5.7,2013-01-28 23:45:00,
2013-01-28 18:50:00,24.7,23.0,30.04,North,-999,0.0,0.0,93,0.00,,,-99.99,WeatherLink 5.7,2013-01-28 23:50:00,
2013-01-28 18:55:00,24.7,23.0,30.04,East,90,0.0,1.0,93,0.00,,,-99.99,WeatherLink 5.7,2013-01-28 23:55:00,
2013-01-28 19:00:00,24.5,22.8,30.01,East,90,0.0,1.0,93,0.00,,,-99.99,WeatherLink 5.7,2013-01-29 00:00:00,
2013-01-28 19:05:00,24.5,22.8,30.01,East,90,0.0,1.0,93,0.00,,,-99.99,WeatherLink 5.7,2013-01-29 00:05:00,
2013-01-28 19:10:00,24.5,22.8,30.01,North,-999,0.0,0.0,93,0.00,,,-99.99,WeatherLink 5.7,2013-01-29 00:10:00,
2013-01-28 19:15:00,24.5,22.8,30.02,North,-999,0.0,0.0,93,0.00,,,-99.99,WeatherLink 5.7,2013-01-29 00:15:00,
2013-01-28 19:20:00,24.7,23.0,30.02,North,-999,0.0,0.0,93,0.00,,,-99.99,WeatherLink 5.7,2013-01-29 00:20:00,
2013-01-28 19:25:00,24.7,23.0,30.02,North,-999,0.0,0.0,93,0.00,,,-99.99,WeatherLink 5.7,2013-01-29 00:25:00,
2013-01-28 19:30:00,24.8,23.1,30.04,North,-999,0.0,0.0,93,0.00,,,-99.99,WeatherLink 5.7,2013-01-29 00:30:00,
2013-01-28 19:40:00,25.0,23.3,30.04,North,-999,0.0,0.0,93,0.00,,,-99.99,WeatherLink 5.7,2013-01-29 00:40:00,
2013-01-28 19:50:00,25.1,23.4,30.03,NNW,337,0.0,2.0,93,0.00,,,-99.99,WeatherLink 5.7,2013-01-29 00:50:00,
2013-01-28 20:05:00,25.0,23.3,30.02,North,0,0.0,1.0,93,0.00,,,-99.99,WeatherLink 5.7,2013-01-29 01:05:00,
2013-01-28 20:15:00,24.8,23.1,30.01,North,-999,0.0,0.0,93,0.00,,,-99.99,WeatherLink 5.7,2013-01-29 01:15:00,
2013-01-28 20:25:00,25.0,23.3,30.01,North,0,0.0,1.0,93,0.00,,,-99.99,WeatherLink 5.7,2013-01-29 01:25:00,
2013-01-28 20:30:00,25.0,23.3,30.00,North,-999,0.0,0.0,93,0.00,,,-99.99,WeatherLink 5.7,2013-01-29 01:30:00,
2013-01-28 20:40:00,25.1,23.4,30.00,North,-999,0.0,0.0,93,0.00,,,-99.99,WeatherLink 5.7,2013-01-29 01:40:00,
2013-01-28 20:50:00,25.1,23.6,29.99,North,-999,0.0,0.0,94,0.00,,,-99.99,WeatherLink 5.7,2013-01-29 01:50:00,
2013-01-28 21:00:00,25.3,23.8,29.98,North,-999,0.0,0.0,94,0.00,,,-99.99,WeatherLink 5.7,2013-01-29 02:00:00,
2013-01-28 21:05:00,25.3,23.8,29.98,North,-999,0.0,0.0,94,0.00,,,-99.99,WeatherLink 5.7,2013-01-29 02:05:00,
2013-01-28 21:15:00,25.1,23.6,29.98,North,-999,0.0,0.0,94,0.00,,,-99.99,WeatherLink 5.7,2013-01-29 02:15:00,
2013-01-28 21:25:00,25.3,23.8,29.98,North,-999,0.0,0.0,94,0.00,,,-99.99,WeatherLink 5.7,2013-01-29 02:25:00,
2013-01-28 21:30:00,25.4,23.9,29.97,North,-999,0.0,0.0,94,0.00,,,-99.99,WeatherLink 5.7,2013-01-29 02:30:00,
2013-01-28 21:40:00,25.4,23.9,29.97,North,-999,0.0,0.0,94,0.00,,,-99.99,WeatherLink 5.7,2013-01-29 02:40:00,
2013-01-28 21:50:00,25.6,24.1,29.97,NNW,337,0.0,1.0,94,0.00,,,-99.99,WeatherLink 5.7,2013-01-29 02:50:00,
2013-01-28 21:55:00,25.6,24.1,29.97,North,-999,0.0,0.0,94,0.00,,,-99.99,WeatherLink 5.7,2013-01-29 02:55:00,
2013-01-28 22:05:00,25.6,24.1,29.97,NNW,337,0.0,1.0,94,0.00,,,-99.99,WeatherLink 5.7,2013-01-29 03:05:00,
2013-01-28 22:15:00,25.3,23.6,29.96,North,-999,0.0,0.0,93,0.00,,,-99.99,WeatherLink 5.7,2013-01-29 03:15:00,
2013-01-28 22:20:00,25.3,23.6,29.96,North,-999,0.0,0.0,93,0.00,,,-99.99,WeatherLink 5.7,2013-01-29 03:20:00,
2013-01-28 22:30:00,25.1,23.4,29.96,North,-999,0.0,0.0,93,0.00,,,-99.99,WeatherLink 5.7,2013-01-29 03:30:00,
2013-01-28 22:35:00,25.1,23.4,29.96,North,-999,0.0,0.0,93,0.00,,,-99.99,WeatherLink 5.7,2013-01-29 03:35:00,
2013-01-28 22:40:00,25.1,23.4,29.96,North,0,0.0,1.0,93,0.00,,,-99.99,WeatherLink 5.7,2013-01-29 03:40:00,
2013-01-28 22:50:00,24.8,23.1,29.96,North,-999,0.0,0.0,93,0.00,,,-99.99,WeatherLink 5.7,2013-01-29 03:50:00,
2013-01-28 23:00:00,24.8,23.1,29.96,North,-999,0.0,0.0,93,0.00,,,-99.99,WeatherLink 5.7,2013-01-29 04:00:00,
2013-01-28 23:05:00,24.8,23.1,29.96,NNW,337,0.0,1.0,93,0.00,,,-99.99,WeatherLink 5.7,2013-01-29 04:05:00,
2013-01-28 23:15:00,24.7,23.0,29.96,North,-999,0.0,0.0,93,0.00,,,-99.99,WeatherLink 5.7,2013-01-29 04:15:00,
2013-01-28 23:25:00,24.7,23.0,29.96,North,-999,0.0,0.0,93,0.00,,,-99.99,WeatherLink 5.7,2013-01-29 04:25:00,
2013-01-28 23:30:00,24.7,23.0,29.96,North,-999,0.0,0.0,93,0.00,,,-99.99,WeatherLink 5.7,2013-01-29 04:30:00,
2013-01-28 23:40:00,24.8,23.1,29.96,North,-999,0.0,0.0,93,0.00,,,-99.99,WeatherLink 5.7,2013-01-29 04:40:00,
2013-01-28 23:50:00,25.0,23.3,29.96,North,-999,0.0,0.0,93,0.00,,,-99.99,WeatherLink 5.7,2013-01-29 04:50:00,
2013-01-28 23:55:00,25.0,23.3,29.96,NNW,337,0.0,1.0,93,0.00,,,-99.99,WeatherLink 5.7,2013-01-29 04:55:00,